User: anonymous   Login
Location: ?
(35.4996°N, 139.3166°E)
Time: 02:04:32
(UTC+00:00)
Language:

SL-16 R/B - Orbit

View from above orbital plane
View from above orbital plane
View from above satellite
View from above satellite

Ground track
Ground track

The orbit data is extracted from the following two-line orbital elements,

1 28353U 04021B   24167.32513868  .00000348  00000-0  20675-3 0  9992
2 28353  71.0007 119.3948 0007206 276.5980  83.4322 14.14423311 33412
Epoch (UTC): 15 June 2024 07:48:11
Eccentricity: 0.0007206
inclination: 71.0007°
perigee height: 839 km
apogee height: 849 km
right ascension of ascending node: 119.3948°
argument of perigee: 276.5980°
revolutions per day: 14.14423311
mean anomaly at epoch: 83.4322°
orbit number at epoch: 3341

The dashed part of the orbit path shows where the satellite is in the earth's shadow,  

DLR